period_start,C,m1,H,J0,J1,J2,J3,J4,J5,JA,JB,JC,JD,JJ,JK,JN,#
2014-01-12 00:00:40,0.18,1.72,0.00,24.14,25.52,28.28,6.01,29.83,1029.31,2046.10,2876.16,2849.29,3093.12,349.93,326.31,10.82,0000 0000 0000 0000 000000
2014-01-12 00:01:40,0.17,1.72,0.00,24.15,25.53,28.28,5.87,29.67,1029.31,2046.10,2875.81,2849.10,3092.87,349.52,325.84,10.83,0000 0000 0000 0000 000000
2014-01-12 00:02:40,0.14,1.73,0.00,24.15,25.54,28.29,5.86,29.83,1029.31,2046.08,2875.32,2848.92,3092.35,350.34,326.76,10.83,0000 0000 0000 0000 000000
2014-01-12 00:03:40,0.23,1.73,0.00,24.14,25.55,28.32,6.03,29.88,1029.31,2046.10,2875.05,2848.41,3092.11,350.25,326.99,10.84,0000 0000 0000 0000 000000
2014-01-12 00:04:41,0.18,1.73,0.00,24.14,25.55,28.32,6.11,29.83,1029.31,2046.06,2874.50,2848.15,3091.86,350.54,327.26,10.84,0000 0000 0000 0000 000000
2014-01-12 00:05:41,0.19,1.73,0.00,24.13,25.55,28.31,6.04,29.75,1029.31,2046.06,2874.17,2848.01,3091.39,350.25,327.00,10.85,0000 0000 0000 0000 000000
2014-01-12 00:06:41,0.14,1.73,0.00,24.16,25.55,28.31,6.13,29.71,1029.31,2046.02,2873.94,2847.55,3091.14,351.31,327.97,10.86,0000 0000 0000 0000 000000
2014-01-12 00:07:41,0.18,1.73,0.00,24.15,25.55,28.32,6.06,29.75,1029.31,2046.04,2873.40,2847.20,3090.92,349.68,326.44,10.86,0000 0000 0000 0000 000000
2014-01-12 00:08:42,0.21,1.73,0.00,24.15,25.55,28.32,6.09,29.67,1029.31,2046.02,2873.13,2847.06,3090.40,351.00,327.68,10.87,0000 0000 0000 0000 000000
2014-01-12 00:09:42,0.14,1.73,0.00,24.16,25.55,28.32,5.88,29.71,1029.31,2046.05,2872.70,2846.85,3090.15,349.93,326.67,10.87,0000 0000 0000 0000 000000
2014-01-12 00:10:42,0.20,1.73,0.00,24.16,25.56,28.33,5.81,29.88,1029.31,2046.03,2872.26,2846.36,3090.00,348.55,325.39,10.88,0000 0000 0000 0000 000000
2014-01-12 00:11:43,0.21,1.74,0.00,24.16,25.57,28.36,5.92,29.79,1029.31,2046.05,2872.06,2846.13,3089.55,348.87,325.68,10.89,0000 0000 0000 0000 000000
2014-01-12 00:12:43,0.16,1.74,0.00,24.17,25.57,28.36,6.12,29.88,1029.31,2046.04,2871.58,2845.96,3089.20,349.69,326.76,10.89,0000 0000 0000 0000 000000
2014-01-12 00:13:43,0.18,1.74,0.00,24.19,25.57,28.37,6.08,29.83,1029.31,2046.02,2871.21,2845.50,3089.06,350.29,326.71,10.90,0000 0000 0000 0000 000000
2014-01-12 00:14:44,0.17,1.74,0.00,24.19,25.57,28.35,5.99,29.79,1029.31,2046.00,2870.87,2845.19,3088.67,350.23,326.92,10.90,0000 0000 0000 0000 000000
2014-01-12 00:15:44,0.20,1.74,0.00,24.18,25.57,28.34,5.90,29.88,1029.31,2046.00,2870.36,2845.03,3088.27,348.67,325.46,10.91,0000 0000 0000 0000 000000
2014-01-12 00:16:44,0.17,1.74,0.00,24.19,25.57,28.34,5.92,29.58,1029.31,2046.02,2870.10,2844.78,3088.09,349.39,326.13,10.91,0000 0000 0000 0000 000000
2014-01-12 00:17:44,0.17,1.74,0.00,24.19,25.58,28.31,5.92,29.71,1029.31,2046.01,2869.66,2844.33,3087.74,349.39,326.13,10.92,0000 0000 0000 0000 000000
2014-01-12 00:18:45,0.23,1.74,0.00,24.18,25.59,28.34,5.98,29.83,1029.31,2046.00,2869.25,2844.12,3087.29,349.65,326.69,10.93,0000 0000 0000 0000 000000
2014-01-12 00:19:45,0.17,1.74,0.00,24.19,25.60,28.35,5.83,29.83,1029.31,2046.00,2868.96,2843.89,3087.09,349.16,325.71,10.93,0000 0000 0000 0000 000000
2014-01-12 00:20:45,0.17,1.75,0.00,24.21,25.60,28.33,6.02,30.00,1029.31,2046.00,2868.45,2843.40,3086.84,349.21,325.95,10.94,0000 0000 0000 0000 000000
2014-01-12 00:21:45,0.23,1.75,0.00,24.22,25.60,28.34,6.04,30.04,1029.31,2046.00,2868.16,2843.14,3086.33,349.68,326.37,10.94,0000 0000 0000 0000 000000
2014-01-12 00:22:46,0.18,1.75,0.00,24.22,25.60,28.36,5.90,29.88,1029.31,2046.00,2867.82,2843.03,3086.12,350.36,327.01,10.95,0000 0000 0000 0000 000000
2014-01-12 00:23:46,0.13,1.75,0.00,24.22,25.60,28.37,5.93,29.63,1029.31,2046.01,2867.34,2842.70,3085.91,349.73,326.42,10.96,0000 0000 0000 0000 000000
2014-01-12 00:24:46,0.24,1.75,0.00,24.22,25.60,28.41,6.04,29.96,1029.31,2046.00,2867.08,2842.27,3085.39,350.02,326.69,10.96,0000 0000 0000 0000 000000
2014-01-12 00:25:47,0.19,1.75,0.00,24.22,25.61,28.40,6.02,29.79,1029.31,2046.00,2866.59,2842.09,3085.14,350.68,327.31,10.97,0000 0000 0000 0000 000000
2014-01-12 00:26:47,0.16,1.75,0.00,24.22,25.62,28.41,6.01,29.71,1029.31,2046.00,2866.21,2841.83,3084.97,349.95,326.63,10.97,0000 0000 0000 0000 000000
2014-01-12 00:27:47,0.18,1.75,0.00,24.20,25.62,28.41,6.03,29.83,1029.31,2046.00,2865.89,2841.36,3084.46,350.59,327.48,10.98,0000 0000 0000 0000 000000
2014-01-12 00:28:47,0.26,1.75,0.00,24.22,25.62,28.40,6.01,29.79,1029.31,2046.00,2865.37,2841.13,3084.17,349.72,326.61,10.99,0000 0000 0000 0000 000000
2014-01-12 00:29:47,0.16,1.76,0.00,24.22,25.62,28.40,6.01,29.50,1029.31,2046.00,2865.13,2841.03,3084.00,350.63,327.06,10.99,0000 0000 0000 0000 000000
2014-01-12 00:30:47,0.08,1.76,0.00,24.23,25.62,28.39,6.04,29.75,1029.31,2046.00,2864.78,2840.61,3083.53,349.54,326.22,11.00,0000 0000 0000 0000 000000
2014-01-12 00:31:48,0.29,1.76,0.00,24.24,25.62,28.36,6.17,29.79,1029.31,2046.00,2864.30,2840.23,3083.20,351.15,327.72,11.00,0000 0000 0000 0000 000000
2014-01-12 00:32:48,0.19,1.76,0.00,24.26,25.63,28.39,5.96,29.75,1029.31,2046.00,2864.08,2840.07,3083.03,349.73,326.38,11.01,0000 0000 0000 0000 000000
2014-01-12 00:33:48,0.09,1.76,0.00,24.24,25.64,28.40,6.02,29.79,1029.31,2046.00,2863.63,2839.83,3082.57,350.04,326.40,11.01,0000 0000 0000 0000 000000
2014-01-12 00:34:48,0.26,1.76,0.00,24.24,25.65,28.40,5.98,29.58,1029.31,2046.00,2863.23,2839.36,3082.21,349.57,326.80,11.02,0000 0000 0000 0000 000000
2014-01-12 00:35:49,0.21,1.76,0.00,24.26,25.65,28.43,5.99,29.88,1029.31,2046.00,2862.96,2839.13,3082.02,349.92,326.55,11.03,0000 0000 0000 0000 000000
2014-01-12 00:36:49,0.15,1.76,0.00,24.25,25.65,28.41,6.04,29.79,1029.31,2045.99,2862.42,2838.95,3081.51,349.66,326.51,11.03,0000 0000 0000 0000 000000
2014-01-12 00:37:50,0.22,1.76,0.00,24.27,25.65,28.43,5.83,30.08,1029.31,2045.99,2862.12,2838.42,3081.19,349.12,325.75,11.04,0000 0000 0000 0000 000000
2014-01-12 00:38:50,0.22,1.77,0.00,24.27,25.65,28.44,6.16,30.25,1029.31,2045.99,2861.59,2838.14,3081.00,350.13,326.25,11.04,0000 0000 0000 0000 000000
2014-01-12 00:39:50,0.19,1.77,0.00,24.27,25.65,28.42,6.03,29.79,1029.31,2045.99,2861.22,2837.97,3080.55,350.30,327.48,11.05,0000 0000 0000 0000 000000
2014-01-12 00:40:50,0.18,1.77,0.00,24.25,25.65,28.43,5.86,29.75,1029.31,2045.98,2860.96,2837.50,3080.20,350.09,327.20,11.06,0000 0000 0000 0000 000000
2014-01-12 00:41:50,0.20,1.77,0.00,24.27,25.67,28.44,6.00,29.63,1029.31,2045.99,2860.43,2837.19,3080.05,349.02,325.69,11.06,0000 0000 0000 0000 000000
2014-01-12 00:42:51,0.18,1.77,0.00,24.28,25.67,28.43,6.07,29.71,1029.30,2045.99,2860.16,2837.06,3079.71,350.95,327.49,11.07,0000 0000 0000 0000 000000
2014-01-12 00:43:51,0.15,1.77,0.00,24.30,25.67,28.43,5.96,29.63,1029.31,2045.99,2859.98,2836.85,3079.26,349.81,326.39,11.07,0000 0000 0000 0000 000000
2014-01-12 00:44:51,0.18,1.77,0.00,24.28,25.67,28.46,6.11,29.79,1029.26,2045.99,2859.49,2836.36,3079.07,349.94,326.53,11.08,0000 0000 0000 0000 000000
2014-01-12 00:45:51,0.22,1.77,0.00,24.29,25.67,28.44,5.84,29.67,1029.25,2045.98,2859.17,2836.13,3078.62,349.42,326.04,11.08,0000 0000 0000 0000 000000
2014-01-12 00:46:51,0.18,1.77,0.00,24.28,25.67,28.45,5.94,29.75,1029.30,2045.98,2858.74,2835.94,3078.23,349.91,326.52,11.09,0000 0000 0000 0000 000000
2014-01-12 00:47:52,0.19,1.78,0.00,24.29,25.67,28.45,5.94,29.75,1029.28,2045.99,2858.29,2835.43,3078.01,349.71,326.31,11.10,0000 0000 0000 0000 000000
2014-01-12 00:48:52,0.23,1.78,0.00,24.29,25.69,28.48,5.90,29.71,1029.29,2045.99,2858.00,2835.15,3077.50,349.60,326.21,11.10,0000 0000 0000 0000 000000
2014-01-12 00:49:52,0.20,1.78,0.00,24.29,25.69,28.48,5.99,29.46,1029.29,2045.99,2857.45,2834.93,3077.17,350.54,327.08,11.11,0000 0000 0000 0000 000000
2014-01-12 00:50:52,0.21,1.78,0.00,24.29,25.70,28.47,6.11,29.88,1029.29,2045.98,2857.14,2834.44,3076.88,350.95,327.47,11.11,0000 0000 0000 0000 000000
2014-01-12 00:51:53,0.22,1.78,0.00,24.29,25.70,28.47,6.03,29.79,1029.29,2045.97,2856.65,2834.17,3076.37,350.47,327.02,11.12,0000 0000 0000 0000 000000
2014-01-12 00:52:53,0.21,1.78,0.00,24.31,25.70,28.51,6.18,29.92,1029.30,2045.97,2856.24,2834.00,3076.13,350.27,326.82,11.13,0000 0000 0000 0000 000000
2014-01-12 00:53:53,0.15,1.78,0.00,24.32,25.70,28.50,5.96,29.58,1029.30,2045.95,2855.89,2833.51,3075.78,350.92,327.42,11.13,0000 0000 0000 0000 000000
2014-01-12 00:54:53,0.25,1.78,0.00,24.30,25.70,28.49,5.88,29.63,1029.29,2045.91,2855.36,2833.18,3075.31,348.48,325.14,11.14,0000 0000 0000 0000 000000
2014-01-12 00:55:54,0.18,1.79,0.00,24.31,25.70,28.48,6.02,29.88,1029.28,2045.93,2855.08,2833.03,3075.10,350.72,327.23,11.14,0000 0000 0000 0000 000000
2014-01-12 00:56:54,0.13,1.79,0.00,24.30,25.70,28.50,6.07,29.46,1029.30,2045.84,2854.58,2832.59,3074.68,350.59,327.12,11.15,0000 0000 0000 0000 000000
2014-01-12 00:57:54,0.18,1.79,0.00,24.29,25.71,28.49,6.00,29.79,1029.29,2045.83,2854.20,2832.22,3074.26,349.72,326.74,11.16,0000 0000 0000 0000 000000
2014-01-12 00:58:55,0.22,1.79,0.00,24.29,25.72,28.48,5.92,29.79,1029.29,2045.85,2853.80,2832.05,3074.09,350.16,326.73,11.16,0000 0000 0000 0000 000000
2014-01-12 00:59:55,0.17,1.79,0.00,24.32,25.72,28.49,5.88,29.50,1029.27,2045.78,2853.32,2831.67,3073.72,349.06,325.96,11.17,0000 0000 0000 0000 000000
2014-01-12 01:00:55,0.21,1.79,0.00,24.33,25.72,28.49,5.84,29.71,1029.27,2045.67,2853.01,2831.24,3073.27,350.86,327.34,11.17,0000 0000 0000 0000 000000
2014-01-12 01:01:55,0.10,1.79,0.00,24.31,25.72,28.50,5.91,29.83,1029.28,2045.61,2852.48,2831.08,3073.08,349.85,326.41,11.18,0000 0000 0000 0000 000000
2014-01-12 01:02:56,0.08,1.79,0.00,24.32,25.72,28.52,6.05,29.75,1029.26,2045.61,2852.17,2830.86,3072.72,350.20,326.73,11.18,0000 0000 0000 0000 000000
2014-01-12 01:03:56,0.23,1.79,0.00,24.33,25.72,28.50,6.02,29.63,1029.25,2045.59,2851.72,2830.38,3072.28,350.11,326.63,11.19,0000 0000 0000 0000 000000
2014-01-12 01:04:56,0.22,1.80,0.00,24.34,25.72,28.53,5.92,29.75,1029.22,2045.44,2851.26,2830.13,3072.08,350.49,326.96,11.20,0000 0000 0000 0000 000000
2014-01-12 01:05:56,0.03,1.80,0.00,24.34,25.72,28.54,6.07,29.83,1029.26,2045.39,2850.99,2829.90,3071.66,350.38,326.87,11.20,0000 0000 0000 0000 000000
2014-01-12 01:06:57,0.19,1.80,0.00,24.33,25.73,28.50,5.99,29.88,1029.22,2045.46,2850.47,2829.42,3071.26,350.77,327.23,11.21,0000 0000 0000 0000 000000
2014-01-12 01:07:57,0.34,1.80,0.00,24.35,25.74,28.49,5.88,29.67,1029.23,2045.36,2850.16,2829.16,3071.09,348.61,325.31,11.21,0000 0000 0000 0000 000000
2014-01-12 01:08:57,-0.03,1.80,0.00,24.35,25.74,28.51,5.97,29.83,1029.16,2045.30,2849.75,2829.04,3070.84,349.56,326.11,11.22,0000 0000 0000 0000 000000
2014-01-12 01:09:57,0.10,1.80,0.00,24.34,25.75,28.51,5.77,29.75,1029.14,2045.38,2849.31,2828.74,3070.38,348.66,325.23,11.23,0000 0000 0000 0000 000000
2014-01-12 01:10:58,0.40,1.80,0.00,24.34,25.75,28.50,6.06,29.75,1029.16,2045.39,2849.07,2828.28,3070.14,351.05,327.55,11.23,0000 0000 0000 0000 000000
2014-01-12 01:11:58,0.15,1.80,0.00,24.35,25.75,28.50,5.88,29.67,1029.11,2045.42,2848.63,2828.09,3069.91,349.46,325.96,11.24,0000 0000 0000 0000 000000
2014-01-12 01:12:58,0.21,1.80,0.00,24.35,25.75,28.52,5.89,29.63,1029.04,2045.31,2848.23,2827.83,3069.41,349.18,325.67,11.24,0000 0000 0000 0000 000000
2014-01-12 01:13:59,0.11,1.80,0.00,24.34,25.75,28.52,5.92,29.79,1028.98,2045.22,2847.85,2827.34,3069.13,349.64,325.82,11.25,0000 0000 0000 0000 000000
2014-01-12 01:14:59,0.15,1.80,0.00,24.34,25.75,28.53,6.01,29.96,1029.00,2045.20,2847.34,2827.11,3068.95,350.69,327.08,11.25,0000 0000 0000 0000 000000
2014-01-12 01:15:59,0.16,1.81,0.00,24.34,25.75,28.56,6.05,29.79,1029.02,2045.18,2847.05,2826.91,3068.43,350.36,326.78,11.26,0000 0000 0000 0000 000000
2014-01-12 01:16:59,0.14,1.81,0.00,24.34,25.75,28.57,5.98,29.88,1029.04,2045.14,2846.48,2826.42,3068.15,350.93,327.79,11.27,0000 0000 0000 0000 000000
2014-01-12 01:17:59,0.26,1.81,0.00,24.34,25.76,28.58,6.09,29.42,1028.95,2045.09,2846.17,2826.15,3067.99,350.82,326.95,11.27,0000 0000 0000 0000 000000
2014-01-12 01:19:00,0.07,1.81,0.00,24.35,25.76,28.56,6.07,29.29,1028.92,2045.14,2845.90,2826.00,3067.47,349.98,326.22,11.28,0000 0000 0000 0000 000000
2014-01-12 01:20:00,0.26,1.81,0.00,24.36,25.77,28.54,6.13,29.83,1028.88,2045.13,2845.38,2825.52,3067.17,350.73,326.79,11.28,0000 0000 0000 0000 000000
2014-01-12 01:21:00,0.22,1.81,0.00,24.35,25.77,28.55,5.96,29.75,1028.89,2045.07,2845.06,2825.19,3066.90,350.00,326.53,11.29,0000 0000 0000 0000 000000
2014-01-12 01:22:00,0.13,1.81,0.00,24.37,25.77,28.54,6.09,29.92,1028.91,2045.07,2844.58,2825.03,3066.38,351.01,326.76,11.30,0000 0000 0000 0000 000000
2014-01-12 01:23:00,0.20,1.81,0.00,24.38,25.77,28.54,6.01,29.75,1028.88,2045.05,2844.20,2824.66,3066.14,350.45,326.78,11.30,0000 0000 0000 0000 000000
2014-01-12 01:24:01,0.20,1.81,0.00,24.36,25.77,28.56,5.92,29.79,1028.85,2045.04,2843.82,2824.25,3065.84,350.30,326.64,11.31,0000 0000 0000 0000 000000
2014-01-12 01:25:01,0.21,1.82,0.00,24.36,25.77,28.54,5.99,29.58,1028.86,2045.04,2843.32,2824.08,3065.36,350.34,326.69,11.31,0000 0000 0000 0000 000000
2014-01-12 01:26:01,0.19,1.82,0.00,24.36,25.77,28.55,6.02,29.75,1028.90,2045.02,2843.02,2823.85,3065.13,349.69,326.09,11.32,0000 0000 0000 0000 000000
2014-01-12 01:27:01,0.12,1.82,0.00,24.34,25.77,28.55,5.93,29.63,1028.92,2045.01,2842.48,2823.36,3064.92,349.63,326.07,11.32,0000 0000 0000 0000 000000
2014-01-12 01:28:02,0.27,1.82,0.00,24.34,25.77,28.55,5.93,29.71,1028.85,2045.02,2842.17,2823.13,3064.41,350.39,326.75,11.33,0000 0000 0000 0000 000000
2014-01-12 01:29:02,0.19,1.82,0.00,24.36,25.78,28.57,5.99,29.67,1028.85,2045.01,2841.85,2822.98,3064.14,350.07,326.44,11.34,0000 0000 0000 0000 000000
2014-01-12 01:30:02,0.12,1.82,0.00,24.37,25.78,28.58,5.92,29.75,1028.84,2045.00,2841.34,2822.54,3063.98,348.90,325.12,11.34,0000 0000 0000 0000 000000
2014-01-12 01:31:02,0.23,1.82,0.00,24.37,25.79,28.57,5.96,29.67,1028.83,2045.00,2841.08,2822.19,3063.51,349.50,325.88,11.35,0000 0000 0000 0000 000000
2014-01-12 01:32:02,0.20,1.82,0.00,24.37,25.80,28.58,5.94,29.38,1028.84,2045.01,2840.59,2822.04,3063.19,348.74,325.48,11.35,0000 0000 0000 0000 000000
2014-01-12 01:33:03,0.19,1.82,0.00,24.36,25.80,28.59,5.95,29.88,1028.85,2045.01,2840.21,2821.74,3063.02,349.74,326.12,11.36,0000 0000 0000 0000 000000
2014-01-12 01:34:03,0.17,1.83,0.00,24.36,25.80,28.58,6.03,29.79,1028.84,2045.00,2839.97,2821.30,3062.59,350.16,326.52,11.37,0000 0000 0000 0000 000000
2014-01-12 01:35:03,0.21,1.83,0.00,24.38,25.80,28.60,5.98,29.71,1028.83,2045.02,2839.44,2821.10,3062.22,350.02,326.36,11.37,0000 0000 0000 0000 000000
2014-01-12 01:36:03,0.23,1.83,0.00,24.36,25.80,28.59,5.99,29.79,1028.84,2045.03,2839.15,2820.91,3062.07,350.21,326.03,11.38,0000 0000 0000 0000 000000
2014-01-12 01:37:03,0.12,1.83,0.00,24.39,25.80,28.58,5.95,29.75,1028.84,2045.03,2838.71,2820.44,3061.71,350.13,326.45,11.38,0000 0000 0000 0000 000000
2014-01-12 01:38:04,0.27,1.83,0.00,24.38,25.80,28.57,5.78,29.88,1028.84,2045.04,2838.26,2820.16,3061.27,349.43,325.80,11.39,0000 0000 0000 0000 000000
2014-01-12 01:39:04,0.22,1.83,0.00,24.37,25.80,28.60,6.13,30.08,1028.84,2045.02,2838.00,2819.99,3061.08,350.57,326.88,11.39,0000 0000 0000 0000 000000
2014-01-12 01:40:04,0.06,1.83,0.00,24.38,25.80,28.60,5.97,30.00,1028.84,2045.00,2837.47,2819.50,3060.63,349.70,325.68,11.40,0000 0000 0000 0000 000000
2014-01-12 01:41:04,0.33,1.83,0.00,24.40,25.80,28.60,5.98,29.75,1028.84,2045.00,2837.14,2819.18,3060.23,350.08,326.40,11.41,0000 0000 0000 0000 000000
2014-01-12 01:42:04,0.17,1.84,0.00,24.39,25.80,28.59,6.01,29.92,1028.83,2045.01,2836.88,2819.07,3060.08,349.42,326.11,11.41,0000 0000 0000 0000 000000
2014-01-12 01:43:05,0.10,1.84,0.00,24.39,25.80,28.58,5.99,30.13,1028.83,2045.01,2836.40,2818.86,3059.85,349.30,325.47,11.42,0000 0000 0000 0000 000000
2014-01-12 01:44:05,0.17,1.84,0.00,24.40,25.80,28.59,6.01,29.88,1028.84,2045.01,2836.09,2818.40,3059.35,350.44,326.68,11.42,0000 0000 0000 0000 000000
2014-01-12 01:45:05,0.26,1.84,0.00,24.38,25.81,28.60,5.86,29.79,1028.83,2045.01,2835.53,2818.14,3059.11,350.37,326.69,11.43,0000 0000 0000 0000 000000
2014-01-12 01:46:06,0.20,1.84,0.00,24.38,25.82,28.61,5.80,29.58,1028.83,2045.00,2835.18,2817.91,3058.66,349.26,325.65,11.44,0000 0000 0000 0000 000000
2014-01-12 01:47:06,0.19,1.84,0.00,24.39,25.82,28.61,5.92,29.75,1028.83,2045.00,2834.77,2817.42,3058.25,349.94,326.28,11.44,0000 0000 0000 0000 000000
2014-01-12 01:48:06,0.26,1.84,0.00,24.38,25.82,28.60,5.91,29.71,1028.85,2045.00,2834.29,2817.15,3058.07,349.56,325.93,11.45,0000 0000 0000 0000 000000
2014-01-12 01:49:06,0.16,1.84,0.00,24.40,25.82,28.61,6.09,29.88,1028.84,2045.00,2834.07,2817.03,3057.80,350.62,326.89,11.45,0000 0000 0000 0000 000000
2014-01-12 01:50:07,0.13,1.84,0.00,24.40,25.82,28.57,5.90,29.67,1028.83,2045.00,2833.55,2816.59,3057.32,349.59,325.91,11.46,0000 0000 0000 0000 000000
2014-01-12 01:51:07,0.29,1.85,0.00,24.40,25.82,28.60,6.04,29.96,1028.86,2045.00,2833.19,2816.22,3057.09,350.36,326.66,11.47,0000 0000 0000 0000 000000
2014-01-12 01:52:07,0.18,1.85,0.00,24.42,25.82,28.63,5.83,29.88,1028.85,2045.00,2832.82,2816.07,3056.68,349.05,325.42,11.47,0000 0000 0000 0000 000000
2014-01-12 01:53:07,0.18,1.85,0.00,24.42,25.82,28.61,6.13,29.83,1028.83,2045.00,2832.32,2815.80,3056.25,350.47,326.30,11.48,0000 0000 0000 0000 000000
2014-01-12 01:54:08,0.22,1.85,0.00,24.41,25.82,28.60,6.17,29.79,1028.83,2045.00,2832.06,2815.35,3056.08,350.63,326.88,11.48,0000 0000 0000 0000 000000
2014-01-12 01:55:08,0.19,1.85,0.00,24.42,25.82,28.63,5.92,29.79,1028.83,2045.00,2831.57,2815.12,3055.80,349.71,326.03,11.49,0000 0000 0000 0000 000000
2014-01-12 01:56:08,0.19,1.85,0.00,24.40,25.82,28.67,5.90,29.88,1028.84,2045.00,2831.20,2815.01,3055.35,350.06,326.37,11.49,0000 0000 0000 0000 000000
2014-01-12 01:57:08,0.16,1.85,0.00,24.42,25.82,28.66,6.08,29.75,1028.83,2045.00,2830.99,2814.59,3055.12,351.09,327.31,11.50,0000 0000 0000 0000 000000
2014-01-12 01:58:08,0.19,1.85,0.00,24.42,25.82,28.63,6.06,29.75,1028.83,2045.00,2830.45,2814.23,3054.82,350.79,327.03,11.51,0000 0000 0000 0000 000000
2014-01-12 01:59:08,0.23,1.86,0.00,24.43,25.83,28.62,5.97,29.71,1028.83,2045.00,2830.13,2814.08,3054.33,350.00,326.51,11.51,0000 0000 0000 0000 000000
2014-01-12 02:00:09,0.17,1.86,0.00,24.41,25.83,28.63,6.10,29.79,1028.83,2045.00,2829.64,2813.78,3054.11,350.19,325.99,11.52,0000 0000 0000 0000 000000
2014-01-12 02:01:09,0.20,1.86,0.00,24.41,25.84,28.64,5.99,29.75,1028.84,2045.00,2829.23,2813.31,3053.83,349.87,326.07,11.52,0000 0000 0000 0000 000000
2014-01-12 02:02:09,0.23,1.86,0.00,24.39,25.84,28.64,6.03,29.63,1028.85,2045.00,2828.96,2813.11,3053.33,350.75,327.03,11.53,0000 0000 0000 0000 000000
2014-01-12 02:03:09,0.17,1.86,0.00,24.40,25.84,28.64,5.95,29.67,1028.84,2045.00,2828.42,2812.90,3053.12,349.72,326.17,11.54,0000 0000 0000 0000 000000
2014-01-12 02:04:09,0.18,1.86,0.00,24.40,25.85,28.63,6.05,29.75,1028.83,2045.00,2828.14,2812.42,3052.88,350.07,326.38,11.54,0000 0000 0000 0000 000000
2014-01-12 02:05:10,0.22,1.86,0.00,24.42,25.85,28.63,5.88,29.71,1028.83,2045.00,2827.67,2812.15,3052.39,349.37,325.46,11.55,0000 0000 0000 0000 000000
2014-01-12 02:06:10,0.22,1.86,0.00,24.42,25.85,28.66,5.95,29.75,1028.83,2045.00,2827.25,2812.01,3052.14,349.85,326.02,11.55,0000 0000 0000 0000 000000
2014-01-12 02:07:10,0.14,1.86,0.00,24.42,25.85,28.64,6.05,29.83,1028.83,2045.00,2827.00,2811.61,3051.95,350.40,326.63,11.56,0000 0000 0000 0000 000000
2014-01-12 02:08:10,0.18,1.87,0.00,24.42,25.85,28.64,5.94,29.83,1028.83,2044.98,2826.45,2811.23,3051.47,350.03,326.32,11.56,0000 0000 0000 0000 000000
2014-01-12 02:09:10,0.25,1.87,0.00,24.43,25.85,28.62,5.93,29.67,1028.83,2044.98,2826.13,2811.06,3051.16,350.47,326.72,11.57,0000 0000 0000 0000 000000
2014-01-12 02:10:11,0.16,1.87,0.00,24.44,25.85,28.64,6.04,29.71,1028.83,2044.98,2825.66,2810.63,3050.96,350.09,326.35,11.58,0000 0000 0000 0000 000000
2014-01-12 02:11:11,0.23,1.87,0.00,24.44,25.85,28.64,5.92,29.54,1028.83,2044.99,2825.25,2810.24,3050.51,349.27,325.60,11.58,0000 0000 0000 0000 000000
2014-01-12 02:12:11,0.23,1.87,0.00,24.43,25.85,28.63,5.94,29.79,1028.83,2044.99,2825.08,2810.08,3050.19,349.87,326.16,11.59,0000 0000 0000 0000 000000
2014-01-12 02:13:11,0.12,1.87,0.00,24.43,25.85,28.67,6.03,29.79,1028.83,2044.99,2824.66,2809.97,3050.02,350.54,326.78,11.59,0000 0000 0000 0000 000000
2014-01-12 02:14:12,0.14,1.87,0.00,24.44,25.85,28.67,6.02,29.75,1028.83,2044.99,2824.24,2809.53,3049.59,350.47,326.71,11.60,0000 0000 0000 0000 000000
2014-01-12 02:15:12,0.25,1.87,0.00,24.42,25.85,28.66,5.92,29.54,1028.83,2044.99,2823.98,2809.19,3049.23,349.64,325.95,11.61,0000 0000 0000 0000 000000
2014-01-12 02:16:12,0.18,1.87,0.00,24.42,25.86,28.66,6.00,29.71,1028.83,2044.99,2823.45,2809.05,3049.06,350.46,326.73,11.61,0000 0000 0000 0000 000000
2014-01-12 02:17:12,0.16,1.88,0.00,24.43,25.86,28.67,5.89,29.58,1028.83,2044.99,2823.15,2808.65,3048.61,348.87,325.23,11.62,0000 0000 0000 0000 000000
2014-01-12 02:18:13,0.23,1.88,0.00,24.43,25.87,28.68,6.08,29.63,1028.83,2044.98,2822.71,2808.25,3048.22,350.36,326.61,11.62,0000 0000 0000 0000 000000
2014-01-12 02:19:13,0.21,1.88,0.00,24.42,25.87,28.67,5.80,29.50,1028.83,2044.98,2822.26,2808.08,3048.05,349.05,325.40,11.63,0000 0000 0000 0000 000000
2014-01-12 02:20:13,0.16,1.88,0.00,24.41,25.87,28.65,5.90,29.54,1028.83,2044.98,2822.03,2807.92,3047.68,349.92,326.52,11.63,0000 0000 0000 0000 000000
2014-01-12 02:21:13,0.14,1.88,0.00,24.41,25.87,28.66,5.93,29.50,1028.83,2044.99,2821.51,2807.46,3047.26,349.42,325.88,11.64,0000 0000 0000 0000 000000
2014-01-12 02:22:14,0.28,1.88,0.00,24.40,25.87,28.65,5.96,29.50,1028.83,2044.98,2821.18,2807.16,3047.09,350.19,326.49,11.65,0000 0000 0000 0000 000000
2014-01-12 02:23:14,0.15,1.88,0.00,24.41,25.87,28.67,5.98,29.67,1028.83,2044.98,2820.88,2807.04,3046.79,349.70,326.03,11.65,0000 0000 0000 0000 000000
2014-01-12 02:24:14,0.14,1.88,0.00,24.39,25.87,28.67,5.98,29.50,1028.83,2044.96,2820.36,2806.62,3046.31,349.70,326.38,11.66,0000 0000 0000 0000 000000
2014-01-12 02:25:14,0.25,1.89,0.00,24.38,25.87,28.66,5.92,29.58,1028.83,2044.97,2820.07,2806.23,3046.10,349.98,326.19,11.66,0000 0000 0000 0000 000000
2014-01-12 02:26:15,0.20,1.89,0.00,24.41,25.87,28.69,6.04,29.63,1028.79,2044.98,2819.57,2806.06,3045.86,350.05,326.19,11.67,0000 0000 0000 0000 000000
2014-01-12 02:27:15,0.18,1.89,0.00,24.40,25.87,28.67,5.94,29.50,1028.81,2044.97,2819.20,2805.73,3045.36,350.32,326.48,11.68,0000 0000 0000 0000 000000
2014-01-12 02:28:15,0.21,1.89,0.00,24.40,25.87,28.66,5.97,29.46,1028.80,2044.97,2818.98,2805.28,3045.12,350.21,326.51,11.68,0000 0000 0000 0000 000000
2014-01-12 02:29:16,0.19,1.89,0.00,24.43,25.87,28.68,6.05,29.54,1028.79,2044.97,2818.45,2805.09,3044.91,350.30,326.56,11.69,0000 0000 0000 0000 000000
2014-01-12 02:30:16,0.17,1.89,0.00,24.40,25.87,28.68,5.83,29.63,1028.79,2044.98,2818.16,2804.98,3044.44,350.10,326.39,11.69,0000 0000 0000 0000 000000
2014-01-12 02:31:16,0.18,1.89,0.00,24.40,25.88,28.69,6.01,29.54,1028.76,2044.99,2817.83,2804.62,3044.16,349.52,325.84,11.70,0000 0000 0000 0000 000000
2014-01-12 02:32:17,0.19,1.89,0.00,24.40,25.88,28.70,5.99,29.63,1028.67,2044.97,2817.32,2804.24,3044.05,350.13,326.38,11.71,0000 0000 0000 0000 000000
2014-01-12 02:33:17,0.19,1.89,0.00,24.42,25.89,28.68,5.95,29.54,1028.68,2044.97,2817.09,2804.07,3043.64,349.73,325.99,11.71,0000 0000 0000 0000 000000
2014-01-12 02:34:17,0.16,1.89,0.00,24.44,25.89,28.68,5.92,29.63,1028.67,2044.97,2816.63,2803.83,3043.24,350.38,326.41,11.72,0000 0000 0000 0000 000000
2014-01-12 02:35:17,0.20,1.90,0.00,24.44,25.90,28.67,5.88,29.71,1028.70,2044.96,2816.23,2803.34,3043.05,350.22,326.43,11.72,0000 0000 0000 0000 000000
2014-01-12 02:36:17,0.21,1.90,0.00,24.43,25.89,28.66,6.20,29.75,1028.73,2044.97,2816.03,2803.11,3042.61,351.14,327.32,11.73,0000 0000 0000 0000 000000